Flag for Vietnam Weather past 2 weeks in Da Nang, Vietnam

Now
97 °F

Partly sunny.


Feels Like: 107 °F
Forecast: 81 / 98 °F
Wind: 10 mph from Southwest

Location: Da Nang Airport

Current Time: May 27, 2015 at 11:00:16 AM

Latest Report: May 27, 2015 at 10:00 AM


Visibility: N/A

Pressure: 29.74 "Hg

Humidity: 47%

Dew point: 73 °F

Location of Da NangLocation

Historic Weather in Da Nang — Graph

°F

Da Nang temperature yesterday

Maximum temperature yesterday: 99 °F (at 10:30 AM)
Minimum temperature yesterday: 81 °F (at 12:30 AM)
Average temperature yesterday: 89 °F

Past Weeks' High & Low Weather Summary

 TemperatureHumidityPressure
High100 °F (May 22, 12:30 PM)100% (May 18, 3:30 PM)29.89 "Hg (May 18, 3:30 PM)
Low75 °F (May 18, 3:30 PM)42% (May 22, 1:00 PM)29.62 "Hg (May 23, 3:30 PM)
Average86 °F73%29.75 "Hg
* Reported May 12 9:00 AM — May 27 9:30 AM, Da Nang, Weather by CustomWeather, © 2015

Note: Actual official high and low records may vary slightly from our data, if they occured in-between our weather recording intervals... More about our weather records

Advertising

Da Nang weather history for previous 24 hours

 ConditionsComfort  
Time TempWeatherWind HumidityBarometerVisibility
9:30 AM
Wed, May 27
97 °FPartly sunny.9 mph47%29.74 "HgN/A
9:00 AM95 °FPartly sunny.10 mph53%29.77 "HgN/A
8:30 AM95 °FPartly sunny.10 mph53%29.77 "HgN/A
8:00 AM93 °FPartly sunny.5 mph53%29.77 "HgN/A
7:30 AM91 °FPartly sunny.3 mph56%29.77 "HgN/A
7:00 AM90 °FPartly sunny.3 mph59%29.74 "HgN/A
6:30 AM88 °FScattered clouds.1 mph62%29.74 "HgN/A
6:00 AM84 °FScattered clouds.3 mph74%29.74 "HgN/A
5:30 AM82 °FScattered clouds.1 mph79%29.71 "HgN/A
5:00 AM82 °FPassing clouds.2 mph79%29.71 "HgN/A
4:30 AM82 °FPassing clouds.3 mph84%29.71 "HgN/A
3:30 AM82 °FPassing clouds.2 mph84%29.68 "HgN/A
3:00 AM84 °FPassing clouds.1 mph84%29.71 "HgN/A
2:30 AM82 °FPassing clouds.No wind89%29.71 "HgN/A
2:00 AM82 °FPassing clouds.2 mph89%29.71 "HgN/A
1:30 AM82 °FPassing clouds.3 mph89%29.71 "HgN/A
1:00 AM84 °FPassing clouds.1 mph79%29.74 "HgN/A
12:30 AM84 °FPassing clouds.1 mph84%29.74 "HgN/A
12:00 AM84 °FPassing clouds.1 mph84%29.74 "HgN/A
11:30 PM
Tue, May 26
84 °FPassing clouds.2 mph84%29.77 "HgN/A
11:00 PM84 °FPassing clouds.3 mph84%29.77 "HgN/A
10:30 PM86 °FPassing clouds.1 mph79%29.77 "HgN/A
10:00 PM86 °FPassing clouds.2 mph79%29.80 "HgN/A
9:30 PM86 °FPassing clouds.1 mph79%29.80 "HgN/A
9:00 PM86 °FPassing clouds.3 mph79%29.77 "HgN/A
8:30 PM86 °FPassing clouds.2 mph79%29.77 "HgN/A
8:00 PM88 °FPassing clouds.2 mph75%29.74 "HgN/A
7:30 PM88 °FPassing clouds.1 mph70%29.74 "HgN/A
7:00 PM88 °FPassing clouds.3 mph70%29.71 "HgN/A
6:30 PM88 °FPassing clouds.5 mph70%29.71 "HgN/A
6:00 PM88 °FPassing clouds.6 mph70%29.68 "HgN/A
5:30 PM90 °FPassing clouds.6 mph71%29.68 "HgN/A
5:00 PM90 °FPassing clouds.7 mph75%29.68 "HgN/A
4:30 PM90 °FPassing clouds.9 mph71%29.68 "HgN/A
4:00 PM93 °FPassing clouds.12 mph56%29.68 "HgN/A
3:30 PM95 °FPassing clouds.10 mph56%29.68 "HgN/A
3:00 PM97 °FPassing clouds.8 mph50%29.68 "HgN/A
2:30 PM97 °FPassing clouds.8 mph53%29.68 "HgN/A
2:00 PM97 °FPassing clouds.6 mph53%29.68 "HgN/A
1:30 PM97 °FPassing clouds.9 mph56%29.71 "HgN/A
1:00 PM95 °FPassing clouds.9 mph56%29.71 "HgN/A
12:30 PM95 °FPassing clouds.10 mph56%29.74 "HgN/A
12:00 PM97 °FPassing clouds.8 mph50%29.74 "HgN/A
11:30 AM99 °FPassing clouds.8 mph44%29.74 "HgN/A
11:00 AM99 °FPassing clouds.8 mph42%29.74 "HgN/A
Weather by CustomWeather, © 2015

See weather overviewHow to use our weather pages